| time (UTC) | temp C | wind direction | speed KPH | gust KPH | rain 1hr cm | rain 24hr cm | rain mn cm | humidity % | barometer mb |
| 20260507085932 | 24 | 156 | 4.8 | 4.8 | 0.00 | 0.00 | 0.00 | 89 | 1012.0 |
| 20260507084732 | 24 | 156 | 4.8 | 4.8 | 0.00 | 0.00 | 0.00 | 89 | 1012.0 |
| 20260507083531 | 24 | 156 | 4.8 | 4.8 | 0.00 | 0.00 | 0.00 | 89 | 1012.0 |
| 20260507082331 | 24 | 156 | 4.8 | 4.8 | 0.00 | 0.00 | 0.00 | 89 | 1013.0 |
| 20260507081130 | 24 | 156 | 4.8 | 4.8 | 0.00 | 0.00 | 0.00 | 89 | 1013.0 |
| 20260507075930 | 24 | 156 | 4.8 | 4.8 | 0.00 | 0.00 | 0.00 | 89 | 1011.0 |
| 20260507074729 | 24 | 156 | 4.8 | 4.8 | 0.00 | 0.00 | 0.00 | 89 | 1011.0 |
| 20260507073527 | 25 | 166 | 4.8 | 4.8 | 0.00 | 0.00 | 0.00 | 85 | 1011.0 |
| 20260507072327 | 25 | 166 | 4.8 | 4.8 | 0.00 | 0.00 | 0.00 | 85 | 1013.0 |
| 20260507071126 | 25 | 166 | 4.8 | 4.8 | 0.00 | 0.00 | 0.00 | 85 | 1013.0 |
| 20260507065923 | 25 | 166 | 4.8 | 4.8 | 0.00 | 0.00 | 0.00 | 85 | 1012.0 |
| 20260507064722 | 25 | 166 | 4.8 | 4.8 | 0.00 | 0.00 | 0.00 | 85 | 1012.0 |
| 20260507063520 | 25 | 166 | 4.8 | 4.8 | 0.00 | 0.00 | 0.00 | 85 | 1012.0 |
| 20260507062320 | 25 | 166 | 4.8 | 4.8 | 0.00 | 0.00 | 0.00 | 85 | 1014.0 |
| 20260507061118 | 25 | 166 | 4.8 | 4.8 | 0.00 | 0.00 | 0.00 | 85 | 1012.0 |
| 20260507055917 | 25 | 166 | 4.8 | 4.8 | 0.00 | 0.00 | 0.00 | 85 | 1012.0 |
| 20260507054717 | 25 | 166 | 4.8 | 4.8 | 0.00 | 0.00 | 0.00 | 85 | 1012.0 |
| 20260507053513 | 25 | 166 | 4.8 | 4.8 | 0.00 | 0.00 | 0.00 | 85 | 1012.0 |
| 20260507052312 | 25 | 166 | 4.8 | 4.8 | 0.00 | 0.00 | 0.00 | 85 | 1014.0 |
| 20260507051111 | 25 | 166 | 4.8 | 4.8 | 0.00 | 0.00 | 0.00 | 85 | 1014.0 |
| 20260507045911 | 25 | 166 | 4.8 | 4.8 | 0.00 | 0.00 | 0.00 | 85 | 1012.0 |
| 20260507044710 | 25 | 166 | 4.8 | 4.8 | 0.00 | 0.00 | 0.00 | 85 | 1012.0 |
| 20260507043507 | 25 | 166 | 4.8 | 4.8 | 0.00 | 0.00 | 0.00 | 85 | 1012.0 |
| 20260507042307 | 25 | 166 | 4.8 | 4.8 | 0.00 | 0.00 | 0.00 | 85 | 1014.0 |
| 20260507041105 | 25 | 166 | 4.8 | 4.8 | 0.00 | 0.00 | 0.00 | 85 | 1014.0 |
| 20260507035903 | 25 | 166 | 4.8 | 4.8 | 0.00 | 0.00 | 0.00 | 85 | 1013.0 |
| 20260507034702 | 25 | 166 | 4.8 | 4.8 | 0.00 | 0.00 | 0.00 | 85 | 1013.0 |
| 20260507033502 | 27 | 190 | 1.6 | 8.0 | 0.00 | 0.00 | 0.00 | 79 | 1013.0 |
| 20260507032301 | 27 | 190 | 1.6 | 8.0 | 0.00 | 0.00 | 0.00 | 79 | 1014.0 |
| 20260507031100 | 27 | 190 | 1.6 | 8.0 | 0.00 | 0.00 | 0.00 | 79 | 1014.0 |
| 20260507025858 | 27 | 190 | 1.6 | 8.0 | 0.00 | 0.00 | 0.00 | 79 | 1012.0 |
| 20260507024655 | 27 | 190 | 1.6 | 8.0 | 0.00 | 0.00 | 0.00 | 79 | 1012.0 |
| 20260507023454 | 27 | 190 | 1.6 | 8.0 | 0.00 | 0.00 | 0.00 | 79 | 1012.0 |
| 20260507022253 | 27 | 190 | 1.6 | 8.0 | 0.00 | 0.00 | 0.00 | 79 | 1013.0 |
| 20260507021053 | 27 | 190 | 1.6 | 8.0 | 0.00 | 0.00 | 0.00 | 79 | 1013.0 |
| 20260507015850 | 27 | 190 | 1.6 | 8.0 | 0.00 | 0.00 | 0.00 | 79 | 1012.0 |
| 20260507014649 | 27 | 190 | 1.6 | 8.0 | 0.00 | 0.00 | 0.00 | 79 | 1012.0 |
| 20260507013449 | 27 | 190 | 1.6 | 8.0 | 0.00 | 0.00 | 0.00 | 79 | 1012.0 |
| 20260507012249 | 27 | 190 | 1.6 | 8.0 | 0.00 | 0.00 | 0.00 | 79 | 1012.0 |
| 20260507011048 | 27 | 190 | 1.6 | 8.0 | 0.00 | 0.00 | 0.00 | 79 | 1012.0 |
| 20260507005847 | 27 | 190 | 1.6 | 8.0 | 0.00 | 0.00 | 0.00 | 79 | 1011.0 |
| 20260507004647 | 27 | 190 | 3.2 | 8.0 | 0.00 | 0.00 | 0.00 | 79 | 1011.0 |
| 20260507003446 | 28 | 167 | 1.6 | 1.6 | 0.00 | 0.00 | 0.00 | 79 | 1010.0 |
| 20260507002246 | 28 | 167 | 1.6 | 1.6 | 0.00 | 0.00 | 0.00 | 79 | 1010.0 |
| 20260507001045 | 28 | 167 | 1.6 | 1.6 | 0.00 | 0.00 | 0.00 | 79 | 1010.0 |
| 20260506235844 | 28 | 167 | 1.6 | 1.6 | 0.00 | 0.00 | 0.00 | 79 | 1009.0 |
| 20260506234644 | 28 | 167 | 1.6 | 3.2 | 0.00 | 0.00 | 0.00 | 79 | 1009.0 |
| 20260506233438 | 29 | 163 | 1.6 | 4.8 | 0.00 | 0.00 | 0.00 | 80 | 1009.0 |
| 20260506232238 | 29 | 163 | 1.6 | 4.8 | 0.00 | 0.00 | 0.00 | 80 | 1009.0 |
| 20260506231036 | 29 | 163 | 1.6 | 4.8 | 0.00 | 0.00 | 0.00 | 80 | 1009.0 |
| 20260506225836 | 29 | 163 | 1.6 | 4.8 | 0.00 | 0.00 | 0.00 | 80 | 1008.0 |
| 20260506224635 | 29 | 163 | 1.6 | 4.8 | 0.00 | 0.00 | 0.00 | 80 | 1008.0 |
| 20260506223434 | 32 | 236 | 4.8 | 11.3 | 0.00 | 0.00 | 0.00 | 72 | 1008.0 |
| 20260506222229 | 32 | 236 | 4.8 | 11.3 | 0.00 | 0.00 | 0.00 | 72 | 1008.0 |
| 20260506221018 | 32 | 236 | 4.8 | 11.3 | 0.00 | 0.00 | 0.00 | 72 | 1008.0 |
| 20260506215817 | 32 | 236 | 4.8 | 11.3 | 0.00 | 0.00 | 0.00 | 72 | 1007.0 |
| 20260506214617 | 32 | 236 | 4.8 | 11.3 | 0.00 | 0.00 | 0.00 | 72 | 1007.0 |
| 20260506213415 | 32 | 236 | 4.8 | 11.3 | 0.00 | 0.00 | 0.00 | 72 | 1007.0 |
| 20260506212215 | 32 | 236 | 4.8 | 11.3 | 0.00 | 0.00 | 0.00 | 72 | 1007.0 |
| 20260506211014 | 32 | 236 | 4.8 | 11.3 | 0.00 | 0.00 | 0.00 | 72 | 1007.0 |
| 20260506205813 | 32 | 236 | 4.8 | 11.3 | 0.00 | 0.00 | 0.00 | 72 | 1007.0 |
| 20260506204612 | 32 | 236 | 4.8 | 11.3 | 0.00 | 0.00 | 0.00 | 72 | 1007.0 |
| 20260506203410 | 32 | 236 | 4.8 | 11.3 | 0.00 | 0.00 | 0.00 | 72 | 1007.0 |
| 20260506202210 | 32 | 236 | 4.8 | 11.3 | 0.00 | 0.00 | 0.00 | 72 | 1008.0 |
| 20260506201007 | 32 | 236 | 4.8 | 11.3 | 0.00 | 0.00 | 0.00 | 72 | 1008.0 |
| 20260506195804 | 32 | 236 | 4.8 | 11.3 | 0.00 | 0.00 | 0.00 | 72 | 1007.0 |
| 20260506194604 | 32 | 236 | 4.8 | 11.3 | 0.00 | 0.00 | 0.00 | 72 | 1007.0 |
| 20260506193403 | 32 | 236 | 4.8 | 11.3 | 0.00 | 0.00 | 0.00 | 72 | 1009.0 |
| 20260506192202 | 32 | 236 | 4.8 | 11.3 | 0.00 | 0.00 | 0.00 | 72 | 1009.0 |
| 20260506190959 | 32 | 236 | 4.8 | 11.3 | 0.00 | 0.00 | 0.00 | 72 | 1009.0 |
| 20260506185758 | 32 | 236 | 4.8 | 11.3 | 0.00 | 0.00 | 0.00 | 72 | 1008.0 |
| 20260506184557 | 32 | 236 | 4.8 | 11.3 | 0.00 | 0.00 | 0.00 | 72 | 1008.0 |
| 20260506183357 | 32 | 236 | 4.8 | 11.3 | 0.00 | 0.00 | 0.00 | 72 | 1008.0 |
| 20260506182155 | 32 | 236 | 4.8 | 11.3 | 0.00 | 0.00 | 0.00 | 72 | 1010.0 |
| 20260506180955 | 32 | 236 | 4.8 | 11.3 | 0.00 | 0.00 | 0.00 | 72 | 1010.0 |
| 20260506175754 | 32 | 236 | 4.8 | 11.3 | 0.00 | 0.00 | 0.00 | 72 | 1009.0 |
| 20260506174554 | 32 | 236 | 4.8 | 11.3 | 0.00 | 0.00 | 0.00 | 72 | 1009.0 |
| 20260506173353 | 29 | 201 | 6.4 | 8.0 | 0.00 | 0.00 | 0.00 | 84 | 1009.0 |
| 20260506172153 | 29 | 201 | 6.4 | 8.0 | 0.00 | 0.00 | 0.00 | 84 | 1010.0 |
| 20260506170952 | 29 | 201 | 6.4 | 8.0 | 0.00 | 0.00 | 0.00 | 84 | 1010.0 |
| 20260506165752 | 29 | 201 | 6.4 | 8.0 | 0.00 | 0.00 | 0.00 | 84 | 1010.0 |
| 20260506164551 | 29 | 201 | 6.4 | 8.0 | 0.00 | 0.00 | 0.00 | 84 | 1011.0 |
| 20260506163348 | 29 | 201 | 6.4 | 8.0 | 0.00 | 0.00 | 0.00 | 84 | 1011.0 |
| 20260506162147 | 29 | 201 | 6.4 | 8.0 | 0.00 | 0.00 | 0.00 | 84 | 1013.0 |
| 20260506160947 | 29 | 201 | 6.4 | 8.0 | 0.00 | 0.00 | 0.00 | 84 | 1013.0 |
| 20260506155745 | 29 | 201 | 6.4 | 8.0 | 0.00 | 0.00 | 0.00 | 84 | 1012.0 |
| 20260506154543 | 29 | 201 | 6.4 | 8.0 | 0.00 | 0.00 | 0.00 | 84 | 1012.0 |
| 20260506153341 | 29 | 201 | 6.4 | 8.0 | 0.00 | 0.00 | 0.00 | 84 | 1013.0 |
| 20260506152140 | 29 | 201 | 6.4 | 8.0 | 0.00 | 0.00 | 0.00 | 84 | 1013.0 |
| 20260506150939 | 29 | 201 | 6.4 | 8.0 | 0.00 | 0.00 | 0.00 | 84 | 1013.0 |
| 20260506145738 | 29 | 201 | 6.4 | 8.0 | 0.00 | 0.00 | 0.00 | 84 | 1013.0 |
| 20260506144538 | 29 | 201 | 6.4 | 9.7 | 0.00 | 0.00 | 0.00 | 84 | 1013.0 |
| 20260506143337 | 25 | 149 | 4.8 | 1.6 | 0.00 | 0.00 | 0.00 | 94 | 1013.0 |
| 20260506142137 | 25 | 149 | 4.8 | 1.6 | 0.00 | 0.00 | 0.00 | 94 | 1013.0 |
| 20260506140936 | 25 | 149 | 4.8 | 1.6 | 0.00 | 0.00 | 0.00 | 94 | 1013.0 |
| 20260506135736 | 25 | 149 | 4.8 | 1.6 | 0.00 | 0.00 | 0.00 | 94 | 1013.0 |
| 20260506134534 | 25 | 149 | 4.8 | 1.6 | 0.00 | 0.00 | 0.00 | 94 | 1013.0 |
| 20260506133333 | 25 | 149 | 4.8 | 1.6 | 0.00 | 0.00 | 0.00 | 94 | 1013.0 |
| 20260506132131 | 25 | 149 | 4.8 | 1.6 | 0.00 | 0.00 | 0.00 | 94 | 1013.0 |
| 20260506130931 | 25 | 149 | 4.8 | 1.6 | 0.00 | 0.00 | 0.00 | 94 | 1013.0 |
| 20260506125730 | 25 | 149 | 4.8 | 1.6 | 0.00 | 0.00 | 0.00 | 94 | 1013.0 |
| 20260506124529 | 25 | 149 | 4.8 | 1.6 | 0.00 | 0.00 | 0.00 | 94 | 1014.0 |
| 20260506123329 | 25 | 149 | 4.8 | 1.6 | 0.00 | 0.00 | 0.00 | 94 | 1014.0 |
| 20260506122128 | 25 | 149 | 4.8 | 1.6 | 0.00 | 0.00 | 0.00 | 94 | 1014.0 |
| 20260506120928 | 25 | 149 | 4.8 | 1.6 | 0.00 | 0.00 | 0.00 | 94 | 1014.0 |
| 20260506115727 | 25 | 149 | 4.8 | 1.6 | 0.00 | 0.00 | 0.00 | 94 | 1013.0 |
| 20260506114526 | 25 | 149 | 4.8 | 1.6 | 0.00 | 0.00 | 0.00 | 94 | 1013.0 |
| 20260506113326 | 25 | 149 | 4.8 | 1.6 | 0.00 | 0.00 | 0.00 | 94 | 1013.0 |
| 20260506112123 | 25 | 149 | 4.8 | 1.6 | 0.00 | 0.00 | 0.00 | 94 | 1014.0 |
| 20260506110922 | 25 | 149 | 4.8 | 1.6 | 0.00 | 0.00 | 0.00 | 94 | 1014.0 |
| 20260506105722 | 25 | 149 | 4.8 | 1.6 | 0.00 | 0.00 | 0.00 | 94 | 1013.0 |
| 20260506104521 | 25 | 149 | 4.8 | 1.6 | 0.00 | 0.00 | 0.00 | 94 | 1012.0 |
| 20260506103320 | 25 | 149 | 4.8 | 1.6 | 0.00 | 0.00 | 0.00 | 94 | 1012.0 |
| 20260506102119 | 25 | 149 | 4.8 | 1.6 | 0.00 | 0.00 | 0.00 | 94 | 1013.0 |
| 20260506100919 | 25 | 149 | 4.8 | 1.6 | 0.00 | 0.00 | 0.00 | 94 | 1013.0 |
| 20260506095718 | 25 | 149 | 4.8 | 1.6 | 0.00 | 0.00 | 0.00 | 94 | 1012.0 |
| 20260506094516 | 25 | 149 | 4.8 | 1.6 | 0.00 | 0.00 | 0.00 | 94 | 1012.0 |
| 20260506093315 | 25 | 149 | 4.8 | 1.6 | 0.00 | 0.00 | 0.00 | 94 | 1012.0 |
| 20260506092115 | 25 | 149 | 4.8 | 1.6 | 0.00 | 0.00 | 0.00 | 94 | 1013.0 |